Location: Sternwarte Hubelmatt
(47.0367°N, 8.3053°E)
Time: 03:11:54
(UTC+02:00)

PCSat - Visible Passes

Search period start: 24 April 2024 00:00
Search period end: 04 May 2024 00:00
Orbit: 783 x 792 km, 67.0° (Epoch: 23 April)

Date Brightness Start Highest point End Pass type
(mag) Time Alt. Az. Time Alt. Az. Time Alt. Az.
24 Apr 12.8 01:56:56 10° N 01:58:40 11° NNE 02:00:24 10° NE visible
24 Apr 11.3 03:38:55 10° NNW 03:43:48 32° NE 03:48:38 10° ESE visible
24 Apr 9.7 05:22:07 10° NW 05:27:22 51° WSW 05:32:35 10° S visible
24 Apr 12.1 21:50:41 10° W 21:55:00 24° NW 21:59:23 10° NNE visible
25 Apr 12.9 01:26:11 10° N 01:26:37 10° NNE 01:27:02 10° NNE visible
25 Apr 11.7 03:07:25 10° NNW 03:11:58 26° NE 03:16:29 10° E visible
25 Apr 9.5 04:50:25 10° NW 04:55:49 70° WSW 05:01:11 10° SSE visible
25 Apr 11.8 21:18:28 10° WSW 21:23:11 29° NW 21:27:54 10° NNE visible
25 Apr 12.8 23:07:07 10° NNW 23:08:24 11° NNW 23:09:41 10° N visible
26 Apr 12.0 02:35:58 10° NNW 02:40:06 21° NE 02:44:13 10° E visible
26 Apr 9.5 04:18:45 10° NNW 04:24:13 89° ENE 04:29:38 10° SSE visible
26 Apr 12.7 22:34:11 10° NW 22:36:22 12° NNW 22:38:33 10° N visible
27 Apr 12.2 02:04:32 10° N 02:08:12 18° NNE 02:11:50 10° ENE visible
27 Apr 9.9 03:47:08 10° NNW 03:52:34 68° NE 03:57:57 10° SE visible
27 Apr 10.7 05:31:26 10° WNW 05:35:24 21° WSW 05:39:21 10° SSW visible
27 Apr 12.5 22:01:29 10° WNW 22:04:21 14° NNW 22:07:14 10° N visible
28 Apr 12.4 01:33:09 10° N 01:36:14 15° NNE 01:39:20 10° ENE visible
28 Apr 10.3 03:15:34 10° NNW 03:20:53 52° NE 03:26:09 10° SE visible
28 Apr 10.4 04:59:22 10° NW 05:03:58 29° WSW 05:08:31 10° SSW visible
28 Apr 12.4 21:28:56 10° WNW 21:32:23 17° NNW 21:35:51 10° N visible
29 Apr 12.4 01:01:47 10° N 01:04:14 13° NNE 01:06:41 10° NE visible
29 Apr 10.8 02:44:02 10° NNW 02:49:08 40° NE 02:54:13 10° ESE visible
29 Apr 10.0 04:27:29 10° NW 04:32:29 39° WSW 04:37:27 10° S visible
30 Apr 12.5 00:30:33 10° N 00:32:13 11° NNE 00:33:51 10° NE visible
30 Apr 11.2 02:12:30 10° NNW 02:17:21 32° NE 02:22:10 10° ESE visible
30 Apr 9.6 03:55:42 10° NW 04:00:58 53° WSW 04:04:17 22° S visible
01 May 11.5 01:41:01 10° NNW 01:45:31 26° NE 01:50:00 10° E visible
01 May 9.4 03:23:59 10° NW 03:29:23 71° WSW 03:31:44 34° SSE visible
01 May 11.4 05:10:23 10° W 05:11:44 11° W 05:12:17 11° WSW visible
01 May 12.6 21:40:32 10° NNW 21:41:56 11° NNW 21:43:19 10° N visible
02 May 11.8 01:09:33 10° NNW 01:13:38 21° NE 01:17:43 10° E visible
02 May 9.5 02:52:19 10° NNW 02:57:47 87° ENE 02:59:42 42° SE visible
02 May 11.1 04:37:15 10° WNW 04:40:17 16° WSW 04:40:17 16° WSW visible
02 May 12.4 21:07:38 10° NW 21:09:53 12° NNW 21:12:07 10° N visible
03 May 12.0 00:38:06 10° N 00:41:43 18° NNE 00:45:18 10° ENE visible
03 May 9.8 02:20:42 10° NNW 02:26:07 66° NE 02:27:57 41° ESE visible
03 May 10.8 04:04:55 10° WNW 04:08:33 21° W 04:08:33 21° W visible
